This is the latest recevied weather packets stored in our database for station/object GW1496. If no packets are shown the sender has not sent any weather packets the latest 10 day(s).
| Time | Temp. | Humidity | Pressure | Rain* | Wind** | Luminosity | Snow |
|---|---|---|---|---|---|---|---|
| 1777750969 | 12.22° C | 42% | 1005 hPa | 0 mm | - | - | - |
| 1777746280 | 12.22° C | 37% | 1006 hPa | 0 mm | - | - | - |
| 1777745574 | 12.78° C | 38% | 1006 hPa | 0 mm | - | - | - |
| 1777737984 | 13.33° C | 35% | 1006 hPa | 0 mm | - | - | - |
| 1777735839 | 12.78° C | 36% | 1006 hPa | 0 mm | - | - | - |
| 1777735453 | 12.22° C | 36% | 1006 hPa | 0 mm | - | - | - |
| 1777734042 | 12.22° C | 39% | 1006 hPa | 0 mm | - | - | - |
| 1777732610 | 12.22° C | 38% | 1006 hPa | 0 mm | - | - | - |
| 1777727567 | 10° C | 57% | 1006.7 hPa | 0 mm | - | - | - |
| 1777726834 | 8.33° C | 60% | 1006.7 hPa | 0 mm | - | - | - |
| 1777723604 | 6.11° C | 78% | 1006.7 hPa | 0 mm | - | - | - |
| 1777722891 | 5.56° C | 78% | 1006.7 hPa | 0 mm | - | - | - |
| 1777722152 | 5.56° C | 79% | 1006.7 hPa | 0 mm | - | - | - |
| 1777717127 | 5.56° C | 79% | 1006.7 hPa | 0 mm | - | - | - |
| 1777716391 | 5.56° C | 79% | 1006 hPa | 0 mm | - | - | - |
| 1777705944 | 8.89° C | 57% | 1006 hPa | 0 mm | - | - | - |
| 1777701647 | 9.44° C | 54% | 1006.7 hPa | 0 mm | - | - | - |
| 1777701288 | 9.44° C | 52% | 1006.7 hPa | 0 mm | - | - | - |
| 1777699821 | 10° C | 53% | 1006 hPa | 0 mm | - | - | - |
| 1777698388 | 10.56° C | 58% | 1006 hPa | 0 mm | - | - | - |
| 1777695875 | 11.11° C | 63% | 1006 hPa | 0 mm | - | - | - |
| 1777691175 | 11.67° C | 59% | 1006 hPa | 0 mm | - | - | - |
| 1777681112 | 14.44° C | 56% | 1004 hPa | 0 mm | - | - | - |
| 1777680766 | 14.44° C | 57% | 1003 hPa | 0 mm | - | - | - |
| 1777679693 | 15° C | 53% | 1003 hPa | 0 mm | - | - | - |
* Rain since midnight (hover to see other rain measurements)
** Current wind speed in m/s (hover to see current wind gust speed)